Location: Azalea Creek
(37.1280°N, 119.2623°W)
Time: 20:05:21
(UTC+00:00)

ADEOS Rocket - Pass Details

Date: 17 February 2020
Orbit: 859 x 1306 km, 98.7° (Epoch: 30 March)

Event Time Altitude Azimuth Distance (km) Brightness Sun altitude
Rises 03:13:59 0° 9° (N) 4,231 6.2 -19.8°
Reaches altitude 10° 03:16:39 10° 6° (N) 3,290 5.7 -20.3°
Maximum altitude 03:24:14 63° 288° (WNW) 1,441 4.0 -21.8°
Drops below altitude 10° 03:31:49 10° 210° (SSW) 3,285 6.1 -23.3°
Sets 03:34:29 0° 207° (SSW) 4,223 6.6 -23.9°
